Location: Trois-Rivi�res
(46.3500°N, 72.5500°W)
Time: 12:18:51
(UTC-05:00)

Daily predictions for brighter satellites

Satellite Brightness Start Highest point End
(mag) Time Altitude Azimuth Time Altitude Azimuth Time Altitude Azimuth
Meteor 1-14 Rocket 4.4 17:45:58 10° S 17:51:57 87° E 17:57:58 10° NNE
Cosmos 1386 Rocket 4.5 17:47:40 10° S 17:53:37 60° E 17:59:32 10° NNE
Cosmos 1238 Rocket 3.5 17:54:31 10° NNE 17:56:49 20° ENE 17:59:06 10° ESE
deb Kosmos-1763 4.1 17:55:05 10° SSW 17:58:51 70° ESE 18:02:38 10° NNE
NOSS 2-2 (C) 4.2 17:54:55 10° SW 17:59:00 60° NW 18:03:53 10° NE
NOAA 12 4.2 17:54:43 10° SSE 17:59:55 58° ENE 18:05:10 10° N
Cosmos 1975 Rocket 4.1 17:57:57 10° NNW 18:02:09 50° W 18:06:19 10° S
SKYMED 2 3.6 18:01:35 10° NNE 18:05:58 85° ESE 18:10:18 10° SSW
COSMOS 2428 3.5 18:01:57 10° NNW 18:07:00 31° NE 18:12:01 10° ESE
ATLAS CENTAUR R/B 4.0 18:05:50 10° WNW 18:08:16 14° NNW 18:10:38 10° N
Meteor 2-4 Rocket 4.4 18:05:20 10° N 18:10:19 32° ENE 18:15:09 10° SE
METEOR-M 4.1 18:05:17 10° SSE 18:10:35 70° ENE 18:15:55 10° N
Cosmos 2237 Rocket 3.9 18:07:19 10° N 18:10:38 15° NE 18:13:56 10° ENE
Cosmos 1536 4.0 18:13:37 10° SE 18:16:36 21° E 18:19:36 10° NE
H-2A R/B 3.8 18:14:11 10° ESE 18:17:12 24° ENE 18:20:15 10° NNE
Okean 1 3.4 18:14:20 10° N 18:18:26 87° W 18:22:29 10° S
Cosmos 1812 3.7 18:15:26 10° NNW 18:19:12 53° W 18:22:57 10° S
Meteor 1-25 Rocket 4.4 18:14:45 10° SSW 18:20:22 79° WNW 18:26:07 10° N
Cosmos 1536 Rocket 3.5 18:16:38 10° N 18:21:08 82° E 18:25:36 10° S
Cosmos 1633 2.9 18:18:50 10° SSE 18:22:19 42° E 18:25:50 10° NNE
Cosmos 2360 Rocket 2.2 18:21:04 10° NNW 18:26:46 80° ENE 18:32:26 10° SSE
Cosmos 1818 3.5 18:21:20 10° SSW 18:26:47 79° ESE 18:32:16 10° NE
Cosmos 407 Rocket 3.7 18:22:56 10° SSW 18:28:12 81° WNW 18:33:34 10° NNE
Cosmos 2219 Rocket 3.2 18:23:32 10° N 18:28:15 27° NE 18:31:49 15° E
Cosmos 2219 4.1 18:26:16 10° SSE 18:30:58 27° ESE 18:35:40 10° NE
Cosmos 676 Rocket 3.9 18:27:33 10° SSW 18:32:44 80° ESE 18:37:59 10° NNE
Cosmos 1570 Rocket 4.1 18:31:42 10° NNW 18:36:50 53° ENE 18:41:56 10° SE
Meteor 1-11 Rocket 3.8 18:34:35 10° S 18:40:16 59° E 18:46:06 10° NNE
SL-16 R/B 4.0 18:41:12 10° N 18:43:53 13° NE 18:45:26 12° NE
Cosmos 1140 Rocket 3.4 18:42:44 10° S 18:47:49 67° ESE 18:52:57 10° NNE
Resurs 01 Rocket 1.5 18:46:09 10° SSE 18:50:31 68° ENE 18:54:55 10° N
Cosmos 1602 3.7 18:46:51 10° S 18:50:43 88° E 18:54:39 10° N
Cosmos 1300 Rocket 3.5 18:47:50 10° S 18:52:15 84° E 18:56:44 10° N
COSMO-SKYMED 1 4.5 18:49:59 10° N 18:53:52 32° WNW 18:57:43 10° SW
Cosmos 614 Rocket 3.9 18:50:42 10° S 18:55:41 59° ESE 19:00:41 10° NNE
Spot 1 4.3 18:53:24 19° SE 18:55:56 43° ENE 18:59:54 10° N
Cosmos 2181 Rocket 4.2 18:50:47 10° N 18:57:02 78° W 19:03:20 10° S
Abrixas rocket 4.3 18:55:28 10° S 18:56:51 15° SSE 18:56:51 15° SSE
Cosmos 1833 4.2 18:52:08 10° SSW 18:57:50 88° WNW 19:03:31 10° NNE
ALOS 2.4 18:53:52 10° S 18:58:32 80° WSW 19:03:15 10° NNW
USA 229 DEB 3.8 18:54:48 10° NW 19:01:54 67° NE 19:07:02 21° SE
Cosmos 2333 Rocket 2.8 18:56:39 10° NNW 19:02:00 37° NE 19:04:11 28° E
USA 229 3.8 18:54:54 10° NW 19:02:00 66° NE 19:07:06 21° SE
Spot 2 Rocket 3.4 18:57:51 10° SSE 19:02:54 85° ENE 19:08:01 10° NNW
Cosmos 2208 Rocket 4.0 18:58:20 10° NNW 19:03:49 81° ENE 19:09:14 10° SSE
Cosmos 1340 4.3 19:02:04 10° NNW 19:05:34 36° W 19:09:04 10° SSW
Helios 1A 3.0 19:04:16 24° SE 19:06:34 53° ENE 19:10:38 10° N
NOSS 8 (E) 4.4 19:04:34 10° SSW 19:07:59 69° SE 19:09:18 37° NE
Resurs 1-3 3.5 19:04:01 10° SSE 19:08:24 86° ENE 19:12:49 10° NNW
Cosmos 1980 4.4 19:04:44 10° NNW 19:09:54 35° NE 19:11:16 31° E
Cosmos 2074 Rocket 3.9 19:08:38 10° S 19:14:49 68° E 19:21:04 10° NNE
Cosmos 1850 Rocket 3.9 19:09:40 10° SSW 19:14:57 74° ESE 19:20:18 10° NNE
Helios 1B rocket 3.3 19:12:45 10° NNE 19:18:12 32° SSE 19:20:46 10° S
USA 215 4.3 19:12:28 15° NE 19:17:16 37° N 19:23:07 10° WNW
Cosmos 2184 Rocket 3.9 19:11:32 10° S 19:17:47 69° E 19:24:00 10° NNE
ATLAS 2AS CENTAUR R/B 4.4 19:12:22 10° NW 19:18:55 25° NNE 19:22:52 18° NE
Envisat 3.4 19:18:29 39° E 19:19:18 42° ENE 19:24:04 10° N
Okean 2 3.3 19:16:57 10° N 19:21:06 64° E 19:22:00 49° SE
NOSS 8 (H) 4.4 19:18:44 10° SSW 19:21:51 66° SSE 19:21:51 66° SSE
Intercosmos 24 4.4 19:18:02 10° S 19:22:22 76° E 19:28:46 10° NNE
USA 186 3.4 19:24:36 23° N 19:24:36 23° N 19:25:51 10° N
ERS-1 Rocket 4.0 19:25:25 29° NE 19:25:25 29° NE 19:29:00 10° N
Genesis I 4.1 19:22:26 10° NW 19:26:15 47° WSW 19:28:05 26° S
SAR-Lupe-1 4.0 19:26:19 55° S 19:27:01 84° WSW 19:30:38 10° NNW
Okean 1 Rocket 3.8 19:22:43 10° SSW 19:27:07 56° WNW 19:31:34 10° N
Meteor 1-5 Rocket 4.2 19:22:02 10° S 19:27:59 76° E 19:33:53 10° NNE
Cosmos 1892 Rocket 3.5 19:24:58 10° N 19:29:15 60° ENE 19:29:15 60° ENE
SAR-Lupe-4 4.0 19:30:26 32° S 19:31:54 62° WSW 19:35:27 10° NNW
NOSS 3-1 (C) 4.2 19:26:54 10° NW 19:34:07 55° NE 19:36:56 39° E
Nadezhda 3 Rocket 4.0 19:28:33 10° N 19:34:38 57° ENE 19:36:37 40° SE
Gbstr 26 Del rocket 2.8 19:33:39 10° SW 19:36:52 62° SW 19:36:52 62° SW
H-2A R/B 4.3 19:43:45 12° NNE 19:43:45 12° NNE 19:44:20 10° NNE
GEOS 3 Rocket 3.7 19:39:42 24° NE 19:42:59 79° NW 19:48:15 10° SW
Cosmos 2285 Rocket 4.1 19:37:03 10° NNW 19:43:30 79° WSW 19:47:50 22° SSE
Cosmos 1025 Rocket 3.9 19:40:02 10° NNW 19:44:16 50° W 19:48:30 10° SSW
Cosmos 405 Rocket 3.1 19:41:32 10° NNW 19:45:01 63° NNW 19:45:01 63° NNW
CZ-2D R/B 4.4 19:43:32 18° SSW 19:46:02 42° W 19:49:41 10° NNW
Cosmos 2154 Rocket 3.9 19:40:31 10° S 19:46:45 62° E 19:53:00 10° NNE
Cosmos 1939 Rocket 4.4 19:49:02 25° N 19:49:02 25° N 19:50:51 10° N
COSMOS 2428 3.5 19:46:02 10° NW 19:51:31 49° WSW 19:55:38 17° S
Meteor 2-13 Rocket 4.3 19:46:36 10° S 19:52:40 84° E 19:58:48 10° N
Cosmos 2237 Rocket 2.1 19:50:09 10° NNW 19:55:51 67° ENE 19:55:52 67° ENE
Cosmos 1066 Rocket 4.5 19:50:19 10° N 19:55:05 51° NE 19:55:05 51° NE
Cosmos 841 Rocket 4.4 19:57:28 10° NNW 20:00:54 37° NNE 20:00:54 37° NNE
NOSS 0 Rocket 3.9 20:01:09 10° NNW 20:07:20 79° WSW 20:08:24 62° S
Cosmos 2219 Rocket 2.6 20:07:05 10° NNW 20:12:35 58° WSW 20:13:35 50° SSW
Cosmos 2219 3.9 20:09:10 10° SW 20:14:47 53° WNW 20:20:25 10° NNE
Cosmos 1763 Rocket 4.1 20:10:49 10° NNW 20:14:26 46° N 20:14:26 46° N
SL-16 R/B 3.2 20:23:45 10° NNW 20:27:19 37° N 20:27:19 37° N
Cosmos 2333 Rocket 3.3 20:40:59 10° NW 20:46:14 40° WSW 20:46:14 40° WSW
USA 215 4.2 20:59:49 38° N 20:59:49 38° N 21:05:18 10° NW
NOSS 3-1 (A) 4.2 20:58:13 10° NW 21:04:58 68° W 21:04:58 68° W
ATLAS 2AS CENTAUR R/B 3.7 21:03:58 10° NW 21:10:18 46° N 21:10:18 46° N
